Location: Camp Cheerful - Strongsville
(41.3172°N, 81.8018°W)
Time: 16:26:38
(UTC-05:00)

ISS - Visible Passes

Search period start: 17 December 2017 00:00
Search period end: 27 December 2017 00:00
Orbit: 402 x 406 km, 51.6° (Epoch: 18 December)

Date Brightness Start Highest point End Pass type
(mag) Time Alt. Az. Time Alt. Az. Time Alt. Az.
17 Dec -1.7 17:59:36 10° WNW 18:02:31 29° SW 18:05:24 10° SSE visible
19 Dec -0.3 17:52:42 10° WSW 17:54:11 13° SW 17:55:39 10° SSW visible
24 Dec -0.4 07:03:20 10° SSE 07:05:08 14° SE 07:06:57 10° E visible
26 Dec -1.9 06:53:41 10° SSW 06:56:39 33° SE 06:59:38 10° ENE visible
